AFR600 TFFF-SOCA

Flight info

Callsign AFR600
Flight time N/A
Altitude 39000
Route BORUS2R BORUS A555 BGI UA555 TRAPP UM786 KALEP KALEP1U
Aircraft A320/M-SDE2E3FGIJ1RWY/HB1

Departure

Time 2026-05-06 12:26
Airport Martinique Aimé Césaire International Airport (TFFF)

Arrival

Time N/A
Airport Cayenne – Félix Eboué Airport (SOCA)
Time Latitude Longitude Altitude Speed Heading
2026-05-06 11:37 14.59481 -61.00101 19 ft 0 kts 33°
2026-05-06 12:18 14.59477 -61.00104 18 ft 4 kts 33°
2026-05-06 12:18 14.59454 -61.00119 18 ft 4 kts 37°
2026-05-06 12:19 14.59436 -61.00133 19 ft 3 kts 35°
2026-05-06 12:19 14.59418 -61.00151 18 ft 4 kts 73°
2026-05-06 12:19 14.59419 -61.00175 18 ft 3 kts 122°
2026-05-06 12:19 14.59421 -61.00179 18 ft 0 kts 126°
2026-05-06 12:22 14.59410 -61.00162 18 ft 5 kts 126°
2026-05-06 12:22 14.59388 -61.00120 18 ft 8 kts 114°
2026-05-06 12:22 14.59362 -61.00061 21 ft 10 kts 130°
2026-05-06 12:22 14.59298 -61.00040 20 ft 9 kts 169°
2026-05-06 12:23 14.59233 -61.00028 20 ft 12 kts 171°
2026-05-06 12:23 14.59160 -61.00044 20 ft 11 kts 230°
2026-05-06 12:23 14.59137 -61.00140 16 ft 16 kts 259°
2026-05-06 12:23 14.59116 -61.00261 16 ft 18 kts 260°
2026-05-06 12:24 14.59093 -61.00401 16 ft 22 kts 260°
2026-05-06 12:24 14.59064 -61.00570 16 ft 26 kts 259°
2026-05-06 12:24 14.59032 -61.00757 23 ft 25 kts 260°
2026-05-06 12:24 14.59003 -61.00925 22 ft 23 kts 259°
2026-05-06 12:25 14.58979 -61.01062 23 ft 13 kts 261°
2026-05-06 12:25 14.58999 -61.01144 24 ft 10 kts 300°
2026-05-06 12:25 14.58987 -61.01185 28 ft 8 kts 198°
2026-05-06 12:25 14.58964 -61.01149 25 ft 9 kts 81°
2026-05-06 12:26 14.59004 -61.00918 22 ft 69 kts 80°
2026-05-06 12:26 14.59127 -61.00193 19 ft 134 kts 80°
2026-05-06 12:26 14.59305 -60.99198 561 ft 142 kts 77°
2026-05-06 12:26 14.59485 -60.98203 1241 ft 141 kts 80°
2026-05-06 12:27 14.59668 -60.97213 1919 ft 138 kts 80°
2026-05-06 12:27 14.59837 -60.96241 2562 ft 138 kts 82°
2026-05-06 12:27 14.59999 -60.95262 3187 ft 139 kts 81°
2026-05-06 12:27 14.60170 -60.94241 3669 ft 153 kts 82°
2026-05-06 12:28 14.60359 -60.93084 4031 ft 174 kts 82°
2026-05-06 12:28 14.60577 -60.91768 4380 ft 198 kts 82°
2026-05-06 12:28 14.60816 -60.90277 4810 ft 223 kts 85°
2026-05-06 12:28 14.60554 -60.88654 5299 ft 244 kts 120°
2026-05-06 12:29 14.59363 -60.87328 5989 ft 261 kts 141°
2026-05-06 12:29 14.57828 -60.86271 6917 ft 268 kts 147°
2026-05-06 12:29 14.56209 -60.85278 7805 ft 273 kts 147°
2026-05-06 12:29 14.54568 -60.84250 8674 ft 278 kts 146°
2026-05-06 12:30 14.52937 -60.83166 9592 ft 280 kts 145°
2026-05-06 12:30 14.51300 -60.82017 10284 ft 291 kts 144°
2026-05-06 12:30 14.49603 -60.80778 10559 ft 314 kts 143°
2026-05-06 12:30 14.47785 -60.79413 10995 ft 329 kts 142°
2026-05-06 12:31 14.45920 -60.77994 11673 ft 335 kts 141°
2026-05-06 12:31 14.44031 -60.76549 12376 ft 341 kts 140°
2026-05-06 12:31 14.42108 -60.75075 13050 ft 347 kts 140°
2026-05-06 12:31 14.40142 -60.73570 13663 ft 355 kts 141°
2026-05-06 12:32 14.38134 -60.72037 14262 ft 361 kts 141°
2026-05-06 12:32 14.36100 -60.70487 14884 ft 366 kts 142°
2026-05-06 12:32 14.34042 -60.68927 15547 ft 368 kts 141°
2026-05-06 12:32 14.31964 -60.67355 16212 ft 372 kts 142°
2026-05-06 12:33 14.29872 -60.65774 16880 ft 375 kts 141°
2026-05-06 12:33 14.27759 -60.64172 17480 ft 380 kts 141°
2026-05-06 12:33 14.25621 -60.62551 18111 ft 384 kts 141°
2026-05-06 12:33 14.23460 -60.60914 18711 ft 387 kts 142°
2026-05-06 12:34 14.21284 -60.59266 19287 ft 389 kts 142°
2026-05-06 12:34 14.19115 -60.57621 19811 ft 394 kts 142°
2026-05-06 12:34 14.16898 -60.55941 20346 ft 397 kts 142°
2026-05-06 12:34 14.14666 -60.54253 20915 ft 400 kts 143°
2026-05-06 12:35 14.12415 -60.52548 21490 ft 403 kts 143°
2026-05-06 12:35 14.10150 -60.50833 22048 ft 405 kts 143°
2026-05-06 12:35 14.07871 -60.49109 22631 ft 407 kts 144°
2026-05-06 12:35 14.05577 -60.47373 23172 ft 410 kts 143°
2026-05-06 12:36 14.03416 -60.45438 23693 ft 414 kts 136°
2026-05-06 12:36 14.01362 -60.43348 24122 ft 416 kts 136°
2026-05-06 12:36 13.99297 -60.41244 24525 ft 419 kts 136°
2026-05-06 12:36 13.97217 -60.39125 24929 ft 422 kts 136°
2026-05-06 12:37 13.95118 -60.36987 25297 ft 426 kts 136°
2026-05-06 12:37 13.93001 -60.34831 25659 ft 430 kts 136°
2026-05-06 12:37 13.90868 -60.32658 26032 ft 433 kts 136°
2026-05-06 12:37 13.88718 -60.30471 26401 ft 436 kts 136°
2026-05-06 12:38 13.86553 -60.28272 26759 ft 439 kts 136°
2026-05-06 12:38 13.84369 -60.26056 27120 ft 442 kts 136°
2026-05-06 12:38 13.82171 -60.23824 27476 ft 444 kts 136°
2026-05-06 12:38 13.79968 -60.21587 27864 ft 446 kts 136°
2026-05-06 12:39 13.77747 -60.19335 28171 ft 450 kts 137°
2026-05-06 12:39 13.75506 -60.17062 28479 ft 454 kts 137°
2026-05-06 12:39 13.73255 -60.14778 28802 ft 456 kts 137°
2026-05-06 12:39 13.70987 -60.12480 29169 ft 458 kts 136°
2026-05-06 12:40 13.68746 -60.10212 29556 ft 458 kts 136°
2026-05-06 12:40 13.66434 -60.07873 29864 ft 462 kts 137°
2026-05-06 12:40 13.64172 -60.05583 30164 ft 464 kts 136°
2026-05-06 12:40 13.61871 -60.03249 30421 ft 466 kts 137°
2026-05-06 12:41 13.59551 -60.00896 30635 ft 470 kts 137°
2026-05-06 12:41 13.57222 -59.98534 30915 ft 471 kts 137°
2026-05-06 12:41 13.54880 -59.96165 31152 ft 473 kts 137°
2026-05-06 12:41 13.52526 -59.93787 31410 ft 475 kts 136°
2026-05-06 12:42 13.50169 -59.91411 31725 ft 474 kts 136°
2026-05-06 12:42 13.47817 -59.89040 32048 ft 473 kts 136°
2026-05-06 12:42 13.45475 -59.86675 32403 ft 472 kts 136°
2026-05-06 12:42 13.43613 -59.84793 32650 ft 472 kts 136°
2026-05-06 12:43 13.41277 -59.82431 33022 ft 470 kts 136°
2026-05-06 12:43 13.38949 -59.80078 33385 ft 469 kts 136°
2026-05-06 12:43 13.36623 -59.77730 33735 ft 468 kts 136°
2026-05-06 12:43 13.34305 -59.75390 34103 ft 467 kts 136°
2026-05-06 12:44 13.31996 -59.73057 34425 ft 465 kts 136°
2026-05-06 12:44 13.29693 -59.70731 34730 ft 464 kts 136°
2026-05-06 12:44 13.27396 -59.68412 35033 ft 463 kts 136°
2026-05-06 12:44 13.25098 -59.66097 35316 ft 463 kts 136°
2026-05-06 12:45 13.22800 -59.63785 35563 ft 463 kts 137°
2026-05-06 12:45 13.20494 -59.61465 35769 ft 465 kts 137°
2026-05-06 12:45 13.15875 -59.56815 36291 ft 464 kts 137°
2026-05-06 12:46 13.13569 -59.54489 36522 ft 465 kts 137°
2026-05-06 12:46 13.11300 -59.52204 36835 ft 463 kts 136°
2026-05-06 12:46 13.09005 -59.49895 37117 ft 461 kts 136°
2026-05-06 12:46 13.06703 -59.47610 37418 ft 459 kts 137°
2026-05-06 12:47 13.04350 -59.45400 37702 ft 458 kts 139°
2026-05-06 12:47 13.01952 -59.43255 37971 ft 457 kts 140°
2026-05-06 12:47 12.99530 -59.41146 38215 ft 456 kts 141°
2026-05-06 12:47 12.97105 -59.39048 38449 ft 456 kts 141°
2026-05-06 12:48 12.94687 -59.36943 38645 ft 456 kts 141°
2026-05-06 12:48 12.92277 -59.34823 38798 ft 457 kts 141°
2026-05-06 12:48 12.89869 -59.32686 38938 ft 457 kts 140°
2026-05-06 12:48 12.87474 -59.30547 39057 ft 456 kts 140°
2026-05-06 12:49 12.85086 -59.28410 39085 ft 455 kts 140°
2026-05-06 12:49 12.80313 -59.24152 39090 ft 455 kts 140°
2026-05-06 12:50 12.75538 -59.19901 39095 ft 455 kts 140°
2026-05-06 12:50 12.70766 -59.15650 39098 ft 455 kts 140°
2026-05-06 12:51 12.65965 -59.11381 39102 ft 458 kts 140°
2026-05-06 12:51 12.61146 -59.07095 39105 ft 459 kts 140°
2026-05-06 12:52 12.56311 -59.02811 39109 ft 459 kts 140°
2026-05-06 12:52 12.51519 -58.98567 39112 ft 459 kts 140°